HODOYOSHI-3

Last updated on Mon Sep 07 2026 00:02:45 GMT+0000 (Coordinated Universal Time)

1 40015U 14033F 26249.42188446 .00000734 00000+0 90069-4 0 9992 2 40015 97.6515 49.2476 0034237 87.1985 273.3149 14.85542668659686
UTC large
Height (km)
Speed (km/s)
/
Latitude / Longitude
Inclination (degrees)
Orbital Period (minutes)
Azimuth
Elevation
Range (km)
Doppler Factor

Next 0 passes for location: London (51.5072 / 0.1276)

No passes found over London.
HODOYOSHI-3